CW8504 Weather Reports


time (UTC)temp
C
wind
direction
speed
KPH
gust
KPH
rain 1hr
cm
rain 24hr
cm
rain mn
cm
humidity
%
barometer
mb
20260902191904 19 37 1.6 4.8 0.03 0.23 0.20 41 1016.2
20260902191404 19 38 1.6 4.8 0.03 0.23 0.20 40 1016.3
20260902190904 18 53 0.0 4.8 0.03 0.23 0.20 43 1016.3
20260902190405 18 285 0.0 1.6 0.05 0.23 0.20 49 1016.3
20260902185904 18 281 0.0 0.0 0.05 0.23 0.20 51 1016.5
20260902185404 17 291 0.0 11.3 0.05 0.23 0.20 50 1016.5
20260902184404 17 335 0.0 9.7 0.08 0.23 0.20 56 1016.6
20260902183404 16 268 0.0 4.8 0.08 0.23 0.20 60 1016.8
20260902182904 16 17 0.0 0.0 0.08 0.23 0.20 64 1017.1
20260902182404 15 15 0.0 0.0 0.05 0.20 0.18 63 1017.1
20260902181904 15 17 0.0 0.0 0.05 0.20 0.18 63 1017.3
20260902181404 15 17 0.0 0.0 0.05 0.20 0.18 63 1017.3
20260902180904 15 17 0.0 0.0 0.05 0.20 0.18 62 1017.3
20260902180405 16 17 0.0 0.0 0.03 0.18 0.15 61 1017.4
20260902175904 16 223 0.0 0.0 0.03 0.18 0.15 59 1017.4
20260902175404 17 226 0.0 3.2 0.03 0.18 0.15 50 1017.6
20260902174404 19 216 12.9 27.4 0.00 0.15 0.13 41 1017.5
20260902173404 20 46 0.0 0.0 0.00 0.15 0.13 41 1016.6
20260902172904 20 46 0.0 4.8 0.00 0.15 0.13 38 1016.6
20260902172404 20 46 1.6 12.9 0.00 0.15 0.13 38 1016.6
20260902171906 20 44 1.6 3.2 0.00 0.15 0.13 42 1016.6
20260902171404 19 37 0.0 19.3 0.00 0.15 0.13 44 1016.7
20260902170904 18 20 1.6 8.0 0.00 0.15 0.13 43 1016.8
20260902170404 18 27 1.6 8.0 0.00 0.15 0.13 47 1016.7
20260902165904 18 24 3.2 9.7 0.00 0.15 0.13 47 1016.8
20260902165404 18 39 3.2 16.1 0.00 0.15 0.13 47 1016.9
20260902164904 17 73 3.2 12.9 0.00 0.15 0.13 53 1016.9
20260902164404 17 114 0.0 11.3 0.00 0.15 0.13 62 1017.0
20260902163904 16 34 1.6 19.3 0.00 0.15 0.13 66 1016.9
20260902163404 15 309 0.0 1.6 0.00 0.15 0.13 71 1016.8
20260902162904 15 310 0.0 4.8 0.00 0.15 0.13 74 1016.9
20260902162404 14 311 1.6 8.0 0.00 0.15 0.13 75 1016.8
20260902161904 13 325 0.0 0.0 0.00 0.15 0.13 76 1017.0
20260902161404 13 325 0.0 0.0 0.00 0.15 0.13 78 1017.1
20260902160904 13 325 0.0 0.0 0.00 0.15 0.13 79 1017.0
20260902160404 13 325 0.0 0.0 0.00 0.15 0.13 79 1017.2
20260902155904 12 325 0.0 0.0 0.00 0.15 0.13 80 1017.2
20260902155404 12 325 0.0 0.0 0.00 0.15 0.13 80 1017.1
20260902154904 12 329 0.0 0.0 0.00 0.15 0.13 80 1017.2
20260902153404 11 340 0.0 0.0 0.00 0.15 0.13 81 1017.2
20260902152404 10 340 0.0 0.0 0.00 0.15 0.13 80 1017.4
20260902151904 10 340 0.0 0.0 0.00 0.15 0.13 80 1017.5
20260902151404 10 340 0.0 0.0 0.00 0.15 0.13 80 1017.6
20260902150904 10 340 0.0 0.0 0.00 0.18 0.13 80 1017.6
20260902150404 10 340 0.0 0.0 0.00 0.18 0.13 80 1017.7
20260902145904 10 340 0.0 0.0 0.00 0.20 0.13 80 1017.7
20260902145404 10 340 0.0 0.0 0.00 0.20 0.13 80 1017.7
20260902144404 9 340 0.0 0.0 0.00 0.28 0.13 80 1017.8
20260902143904 9 340 0.0 0.0 0.00 0.30 0.13 80 1017.7
20260902143404 9 341 0.0 0.0 0.00 0.30 0.13 80 1017.8
20260902142904 8 341 0.0 0.0 0.00 0.33 0.13 79 1017.8
20260902142404 8 341 0.0 0.0 0.00 0.33 0.13 79 1017.9
20260902141904 8 341 0.0 0.0 0.00 0.33 0.13 79 1017.9
20260902141403 8 341 0.0 0.0 0.00 0.33 0.13 79 1017.9
20260902140904 8 341 0.0 0.0 0.00 0.33 0.13 79 1017.9
20260902135904 8 341 0.0 0.0 0.00 0.33 0.13 79 1018.0
20260902135404 8 341 0.0 0.0 0.00 0.33 0.13 79 1017.9
20260902134404 8 341 0.0 0.0 0.00 0.33 0.13 79 1018.0
20260902133904 8 341 0.0 0.0 0.00 0.33 0.13 79 1018.0
20260902133404 8 341 0.0 0.0 0.00 0.33 0.13 79 1018.0
20260902132904 8 341 0.0 0.0 0.00 0.33 0.13 79 1018.0
20260902132404 8 341 0.0 0.0 0.00 0.33 0.13 79 1018.0
20260902131904 8 341 0.0 3.2 0.00 0.33 0.13 78 1018.0
20260902131404 8 342 0.0 0.0 0.00 0.33 0.13 78 1018.1
20260902130904 8 342 0.0 0.0 0.00 0.33 0.13 78 1018.1
20260902130404 8 342 0.0 0.0 0.00 0.33 0.13 78 1018.1
20260902125405 8 342 0.0 0.0 0.00 0.36 0.13 78 1018.0
20260902124404 8 342 0.0 0.0 0.00 0.38 0.13 78 1017.8
20260902123904 8 342 0.0 0.0 0.00 0.41 0.13 78 1017.7
20260902123404 8 342 0.0 0.0 0.00 0.41 0.13 78 1017.8
20260902122905 8 342 0.0 0.0 0.00 0.41 0.13 78 1017.8
20260902121904 8 342 0.0 0.0 0.00 0.41 0.13 78 1017.8
20260902121404 9 342 0.0 0.0 0.00 0.41 0.13 78 1017.7
20260902120404 9 342 0.0 0.0 0.00 0.41 0.13 78 1017.8
20260902115404 9 342 0.0 0.0 0.00 0.41 0.13 78 1017.8
20260902114904 9 342 0.0 0.0 0.00 0.41 0.13 78 1017.9
20260902114404 9 342 0.0 0.0 0.00 0.41 0.13 78 1018.0
20260902113904 9 342 0.0 0.0 0.00 0.41 0.13 78 1017.9
20260902113404 9 342 0.0 0.0 0.00 0.41 0.13 78 1018.0
20260902112904 9 342 0.0 0.0 0.00 0.41 0.13 78 1018.0
20260902112405 9 342 0.0 0.0 0.00 0.41 0.13 78 1018.0
20260902111904 10 342 0.0 0.0 0.00 0.41 0.13 78 1017.9
20260902111404 10 342 0.0 0.0 0.00 0.41 0.13 78 1017.9
20260902110904 10 342 0.0 0.0 0.00 0.41 0.13 78 1017.9
20260902110404 10 342 0.0 0.0 0.00 0.41 0.13 78 1018.0
20260902105904 10 342 0.0 0.0 0.00 0.41 0.13 78 1018.0
20260902105404 10 342 0.0 0.0 0.00 0.41 0.13 78 1018.1
20260902104905 10 342 0.0 0.0 0.00 0.41 0.13 78 1018.3
20260902103904 10 342 0.0 0.0 0.00 0.41 0.13 78 1018.3
20260902103404 10 342 0.0 0.0 0.00 0.41 0.13 78 1018.5
20260902102904 10 342 0.0 0.0 0.00 0.41 0.13 78 1018.5
20260902102404 10 342 0.0 0.0 0.00 0.41 0.13 78 1018.3
20260902101404 10 346 0.0 0.0 0.00 0.43 0.13 78 1018.0
20260902100904 10 346 0.0 0.0 0.00 0.43 0.13 78 1018.0
20260902100404 10 346 0.0 0.0 0.00 0.43 0.13 78 1018.1
20260902095904 11 346 0.0 0.0 0.03 0.43 0.13 78 1018.0
20260902094904 11 346 0.0 0.0 0.03 0.43 0.13 78 1017.9
20260902094404 11 346 0.0 0.0 0.03 0.43 0.13 79 1018.0
20260902093904 11 346 0.0 14.5 0.03 0.43 0.13 79 1018.1
20260902093404 10 329 1.6 14.5 0.03 0.43 0.13 79 1018.2
20260902092904 10 338 0.0 0.0 0.03 0.43 0.13 78 1018.5
20260902092404 10 235 0.0 0.0 0.03 0.43 0.13 78 1018.6
20260902091904 10 234 0.0 0.0 0.03 0.43 0.13 78 1018.6
20260902091404 10 234 0.0 0.0 0.05 0.43 0.13 78 1018.6
20260902090404 10 234 0.0 0.0 0.08 0.43 0.13 78 1019.0
20260902085904 10 234 0.0 0.0 0.08 0.41 0.10 78 1018.9
20260902084904 10 234 0.0 0.0 0.10 0.41 0.10 78 1018.7
20260902084404 10 232 0.0 0.0 0.10 0.41 0.10 78 1019.0
20260902083904 10 232 0.0 0.0 0.10 0.41 0.10 78 1019.1
20260902083404 10 232 0.0 0.0 0.10 0.41 0.10 78 1019.2
20260902082904 10 232 0.0 0.0 0.10 0.41 0.10 78 1019.3
20260902081904 10 232 0.0 0.0 0.10 0.41 0.10 78 1019.4
20260902081404 10 232 0.0 0.0 0.08 0.38 0.08 78 1019.3
20260902080904 10 232 0.0 0.0 0.08 0.38 0.08 78 1019.4
20260902080404 9 232 1.6 9.7 0.05 0.36 0.05 77 1019.3
20260902075904 9 178 0.0 14.5 0.03 0.33 0.03 77 1019.2
20260902074904 9 223 0.0 4.8 0.00 0.30 0.00 76 1018.6
20260902073904 8 219 0.0 0.0 0.00 0.30 0.00 76 1018.2
20260902073404 8 219 0.0 0.0 0.00 0.30 0.00 76 1018.1
20260902072904 8 220 0.0 0.0 0.00 0.30 0.00 76 1018.1
20260902072404 8 220 0.0 0.0 0.00 0.30 0.00 76 1017.9
20260902071904 8 220 0.0 0.0 0.00 0.30 0.00 76 1018.0
20260902071404 8 213 0.0 0.0 0.00 0.30 0.00 76 1018.1
20260902070904 8 213 0.0 0.0 0.00 0.30 0.00 75 1018.0
20260902070404 8 213 1.6 3.2 0.00 0.30 0.00 75 1018.1
20260902065904 8 160 0.0 0.0 0.00 0.30 0.00 75 1018.2
20260902065404 8 160 0.0 0.0 0.00 0.30 0.00 75 1018.2
20260902064404 8 160 0.0 0.0 0.00 0.30 0.00 75 1018.2
20260902062904 9 160 0.0 0.0 0.00 0.30 0.00 74 1018.2
20260902061904 9 160 0.0 0.0 0.00 0.30 0.00 74 1018.2
20260902061404 9 160 0.0 0.0 0.00 0.30 0.00 74 1018.3
20260902060904 9 160 0.0 0.0 0.00 0.30 0.00 74 1018.3
20260902055904 10 160 0.0 0.0 0.00 0.30 0.30 73 1018.3
20260902055404 10 160 0.0 0.0 0.00 0.30 0.30 73 1018.4
20260902054404 10 160 0.0 0.0 0.00 0.30 0.30 73 1018.5
20260902053904 10 160 0.0 0.0 0.00 0.30 0.30 72 1018.5
20260902053404 10 160 0.0 0.0 0.00 0.30 0.30 72 1018.5
20260902052904 10 160 0.0 0.0 0.00 0.30 0.30 72 1018.5
20260902052404 10 160 0.0 0.0 0.00 0.30 0.30 72 1018.4
20260902051904 10 160 0.0 0.0 0.00 0.30 0.30 72 1018.4
20260902051404 10 160 0.0 0.0 0.00 0.30 0.30 72 1018.5
20260902050904 11 160 0.0 0.0 0.00 0.30 0.30 71 1018.5
20260902050404 11 160 0.0 0.0 0.00 0.30 0.30 71 1018.6
20260902045904 11 160 0.0 0.0 0.00 0.30 0.30 71 1018.6
20260902045404 11 160 0.0 0.0 0.00 0.30 0.30 71 1018.6
20260902044904 11 160 0.0 0.0 0.00 0.30 0.30 71 1018.7
20260902044404 11 160 0.0 0.0 0.00 0.30 0.30 71 1018.7
20260902043904 11 160 0.0 0.0 0.00 0.30 0.30 71 1018.6
20260902042904 11 160 0.0 0.0 0.00 0.30 0.30 71 1018.5
20260902042404 11 186 0.0 0.0 0.00 0.30 0.30 70 1018.5
20260902041904 11 221 0.0 0.0 0.00 0.30 0.30 70 1018.4
20260902041404 11 221 0.0 0.0 0.00 0.30 0.30 69 1018.4
20260902040905 12 221 0.0 0.0 0.00 0.30 0.30 69 1018.4
20260902035404 12 221 0.0 0.0 0.00 0.30 0.30 69 1018.3
20260902034904 12 221 0.0 0.0 0.00 0.30 0.30 69 1018.2
20260902034404 12 221 0.0 0.0 0.00 0.30 0.30 68 1018.2
20260902033904 12 221 0.0 0.0 0.00 0.30 0.30 66 1018.1
20260902033404 13 221 0.0 0.0 0.03 0.30 0.30 65 1018.1
20260902032904 13 221 0.0 0.0 0.03 0.30 0.30 64 1018.1
20260902031904 13 221 0.0 0.0 0.03 0.30 0.30 64 1018.1
20260902031406 13 221 0.0 0.0 0.03 0.30 0.30 65 1018.1
20260902030904 14 221 0.0 0.0 0.03 0.30 0.30 65 1018.1
20260902030404 14 221 0.0 0.0 0.03 0.30 0.30 65 1018.1
20260902025904 15 221 0.0 0.0 0.03 0.30 0.30 63 1018.0
20260902025404 15 221 0.0 0.0 0.03 0.30 0.30 61 1017.9
20260902024904 15 220 0.0 0.0 0.03 0.30 0.30 60 1017.9
20260902023404 16 221 0.0 3.2 0.00 0.28 0.28 53 1018.5
20260902022404 16 201 0.0 0.0 0.00 0.28 0.28 52 1017.7
20260902021904 16 201 0.0 0.0 0.00 0.28 0.28 52 1017.7
20260902021404 17 201 0.0 0.0 0.00 0.28 0.28 50 1017.7
20260902020904 17 201 0.0 0.0 0.00 0.28 0.28 50 1017.7
20260902020404 17 201 0.0 0.0 0.00 0.28 0.28 45 1017.6
20260902015904 18 200 0.0 0.0 0.00 0.28 0.28 44 1017.4
20260902015404 18 195 0.0 1.6 0.00 0.28 0.28 41 1017.3
20260902014904 19 190 4.8 27.4 0.00 0.28 0.28 40 1017.7
20260902014404 20 207 9.7 20.9 0.00 0.28 0.28 37 1017.4
20260902013904 20 184 0.0 0.0 0.00 0.28 0.28 43 1016.9
20260902012904 20 173 0.0 0.0 0.00 0.28 0.28 41 1016.8
20260902012404 20 173 0.0 0.0 0.00 0.28 0.28 40 1016.6
20260902011905 21 171 0.0 0.0 0.00 0.28 0.28 39 1016.7
20260902011404 21 171 0.0 0.0 0.00 0.28 0.28 39 1016.8
20260902010904 21 211 0.0 0.0 0.00 0.28 0.28 41 1016.8
20260902010404 21 227 0.0 0.0 0.00 0.28 0.28 42 1016.8
20260902005405 21 227 0.0 0.0 0.00 0.28 0.28 38 1016.8
20260902004904 22 227 0.0 0.0 0.00 0.28 0.28 34 1016.8
20260902004404 22 227 0.0 0.0 0.00 0.28 0.28 34 1016.9
20260902003904 22 227 0.0 0.0 0.00 0.28 0.28 34 1016.9
20260902003404 22 227 0.0 0.0 0.00 0.28 0.28 33 1016.8
20260902002904 22 227 0.0 0.0 0.00 0.28 0.28 33 1016.8
20260902002404 22 228 0.0 8.0 0.00 0.28 0.28 31 1016.8
20260902001904 22 223 1.6 8.0 0.00 0.28 0.28 32 1016.9
20260902001404 22 229 1.6 4.8 0.00 0.28 0.28 32 1016.9
20260902000406 23 225 0.0 3.2 0.00 0.28 0.28 31 1017.0
20260901235904 23 225 0.0 4.8 0.00 0.28 0.28 29 1017.0
20260901234904 24 229 1.6 12.9 0.00 0.28 0.28 30 1017.0
20260901234404 24 236 1.6 4.8 0.00 0.28 0.28 27 1017.0
20260901233904 23 217 6.4 12.9 0.00 0.28 0.28 29 1017.0
20260901233404 23 250 4.8 9.7 0.00 0.28 0.28 29 1016.9
20260901232904 23 227 3.2 4.8 0.00 0.28 0.28 33 1017.0
20260901232404 23 217 1.6 4.8 0.00 0.28 0.28 30 1017.1
20260901231904 23 217 1.6 8.0 0.00 0.28 0.28 32 1017.1
20260901231404 23 221 1.6 9.7 0.00 0.28 0.28 32 1017.1
20260901230904 23 221 0.0 4.8 0.00 0.28 0.28 32 1017.3
20260901230404 23 234 3.2 4.8 0.00 0.28 0.28 32 1017.3
20260901225904 23 253 1.6 9.7 0.00 0.28 0.28 31 1017.3
20260901224904 23 234 4.8 12.9 0.00 0.28 0.28 30 1017.4
20260901224405 23 253 1.6 14.5 0.00 0.28 0.28 30 1017.3
20260901223904 23 233 6.4 14.5 0.00 0.28 0.28 30 1017.4
20260901223404 23 222 4.8 9.7 0.00 0.28 0.28 31 1017.4
20260901222904 23 231 4.8 14.5 0.00 0.28 0.28 31 1017.5
20260901222404 23 226 1.6 8.0 0.00 0.28 0.28 33 1017.5
20260901221904 23 247 0.0 4.8 0.00 0.28 0.28 35 1017.5
20260901220404 22 190 1.6 4.8 0.00 0.28 0.28 34 1017.7
20260901215904 22 241 0.0 4.8 0.00 0.28 0.28 35 1017.8
20260901215404 22 233 1.6 8.0 0.00 0.28 0.28 35 1017.9
20260901214904 22 223 3.2 12.9 0.00 0.28 0.28 35 1017.9
20260901214404 22 227 3.2 8.0 0.00 0.28 0.28 36 1018.0
20260901213904 22 135 1.6 8.0 0.00 0.28 0.28 36 1018.0
20260901213404 22 191 0.0 3.2 0.00 0.28 0.28 37 1018.1
20260901212404 22 238 0.0 0.0 0.00 0.28 0.28 39 1018.1
20260901211904 22 219 1.6 4.8 0.00 0.28 0.28 35 1018.4
20260901211404 22 238 0.0 4.8 0.00 0.28 0.28 37 1018.5
20260901210904 22 240 0.0 0.0 0.00 0.28 0.28 36 1018.5
20260901210404 22 215 0.0 0.0 0.00 0.28 0.28 36 1018.5
20260901205904 22 215 0.0 4.8 0.00 0.28 0.28 36 1018.6
20260901205404 22 205 1.6 4.8 0.00 0.28 0.28 37 1018.6
20260901203904 22 232 1.6 8.0 0.00 0.28 0.28 37 1018.8
20260901202904 22 212 1.6 11.3 0.00 0.28 0.28 38 1018.9
20260901201904 21 226 1.6 8.0 0.00 0.28 0.28 38 1019.0
20260901201404 21 226 3.2 9.7 0.00 0.28 0.28 39 1019.1
20260901200904 21 252 0.0 11.3 0.00 0.28 0.28 40 1019.3
20260901200404 21 239 0.0 0.0 0.00 0.28 0.28 40 1019.4
20260901195404 21 232 3.2 11.3 0.00 0.28 0.28 42 1019.5
20260901194904 21 230 1.6 4.8 0.00 0.28 0.28 42 1019.5
20260901194404 21 235 3.2 12.9 0.00 0.28 0.28 43 1019.6
20260901193904 20 239 0.0 9.7 0.00 0.28 0.28 45 1019.7
20260901193404 20 227 4.8 16.1 0.00 0.28 0.28 45 1019.7
20260901192904 20 234 3.2 8.0 0.00 0.28 0.28 45 1019.8